星链-1995 (STARLINK-1995 )

导读

STARLINK-1995是美国SpaceX公司星链星座中的一员,于2021年2月4日发射升空。星链项目旨在构建全球卫星互联网,为传统网络覆盖不足的偏远地区提供高速宽带服务,也可在灾害应急等场景保障通信。作为低轨星座的组成部分,该卫星参与组网,共同实现全球范围的互联网接入服务,目前星链已在超150个国家和地区提供服务,覆盖超900万用户。

基本信息
目录编号:
47590
目录名称:
STARLINK-1995
国际标识:
2021-009AU
轨道中心:
EARTH
卫星名称:
星链-1995
卫星全名:
星链-1995 (STARLINK-1995 )
卫星状态:
已陨落 最后检测时间 2026-08-14
发射日期:
2021-02-04 UTC
国别 :
美国 (US)
星等 :
--
该卫星已列入 空间交会检测服务 Space Conjunction Data Service (SCDS) ,当前飞行风险评估等级: 无高风险
轨道信息
数据来源 国际轨道数据
星历时间: 2026-08-15T01:14:23+0800
轨道信息已过期27天
半长轴: 6524.432km
偏心率: 0.0005652
轨道倾角: 53.017°
近地点辐角 294.309°
升交点赤经 309.034°
平近点角 65.737°
近地点: 142.607km
远地点: 149.983km
周期: 87.413分钟
每日圈数: 16.473609
详细信息
固有亮度:
5
最大亮度:
2.5
卫星平台:
Starlink V1.0
覆盖范围:
全球
运营商:
太空探索技术公司
运营商所在国:
美国
制造商(研发单位):
太空探索技术公司
制造商所在国:
美国
使用方式:
暂无
卫星简介
星链(Starlink)计划是由太空探索技术公司(SpaceX)提出的一个巨型低轨卫星互联网星座项目,计划在2019年至2024年间在太空搭建由约1.2万颗卫星组成的“星链”网络,其中1584颗将部署在地球上空550千米处的近地轨道,并从2020年开始工作。该卫星仍在工作。
与全量物体交会距离演化趋势
与全量物体交会风险概率演化趋势